Vorticity
14 5 9 23 22 13 4 3 4 3 4 2 2 2 2 4 5 6 8 8 6 3 3 8 12 12 9 7 7 7 8 7 2 3 5 5 5 5 5 3 2 3 5 7 5 4 7 6 6 7 7 9 8 8 8 8 8 8 9 8 7 8 9 9 9 9 9 9 9 9 9 9 8 9 9 9 9 9 10 9 9 9 8 9 9 8 9 9
16 11 20 20 8 2 2 4 4 3 3 1 2 2 4 5 6 9 8 5 3 4 10 12 10 8 7 8 7 4 4 5 3 4 6 4 4 5 5 4 3 4 7 8 8 8 9 9 11 12 12 13 12 12 11 9 10 9 9 8 6 8 8 8 8 9 9 9 9 9 9 9 10 10 10 11 11 11 11 10 9 9 9 9 9 9 9 9
17 12 12 5 2 4 4 4 3 2 2 2 3 4 5 6 8 7 4 3 6 11 13 9 7 8 7 7 5 2 3 6 5 4 6 4 4 6 6 7 7 9 11 11 11 12 14 16 17 16 16 17 17 17 15 15 15 14 14 12 10 10 8 8 8 7 8 8 9 9 9 9 10 10 10 10 10 11 10 8 8 8 8 9 9 9 9 9
6 3 4 4 5 4 3 4 2 2 2 3 4 5 7 8 6 3 3 8 13 12 8 6 9 8 4 3 4 4 3 3 4 4 6 5 6 8 9 10 12 13 14 14 14 15 15 15 14 14 15 16 16 15 16 17 17 19 19 15 16 15 13 13 10 9 8 8 7 6 8 10 9 9 9 9 9 10 9 8 10 10 9 9 9 8 7 8
8 5 6 6 4 2 3 2 2 3 3 4 5 7 8 6 2 3 10 13 11 8 6 8 7 3 4 3 3 4 2 3 6 6 7 8 9 12 13 13 13 13 13 12 10 10 10 9 9 10 11 11 11 11 12 12 13 15 14 15 19 15 12 14 14 13 11 10 8 6 6 7 6 7 9 10 11 11 11 11 10 11 11 10 10 9 9 9
10 7 5 4 3 3 3 2 3 4 4 6 8 9 5 2 5 11 13 9 7 7 7 5 3 3 5 3 3 5 4 4 7 8 9 11 11 12 11 10 11 10 9 6 4 5 6 6 6 7 7 7 8 9 10 8 9 9 7 11 14 11 12 14 14 13 13 13 13 12 12 10 7 6 6 7 9 11 11 11 10 10 10 9 9 9 10 10
7 5 4 4 3 2 2 3 3 4 7 9 8 5 2 5 11 12 7 6 7 6 3 1 3 3 2 3 5 5 5 7 10 11 12 10 9 9 8 8 8 6 3 2 2 3 4 3 4 6 3 2 5 8 8 8 9 8 7 7 6 7 9 10 12 10 12 14 13 15 15 13 11 9 8 6 5 6 7 8 9 10 9 9 10 9 9 9
4 4 4 3 3 3 2 3 5 8 9 8 5 3 7 11 11 6 6 8 7 3 2 3 3 3 5 7 5 6 8 11 12 10 8 7 6 7 7 5 3 3 2 2 3 1 3 3 2 6 3 1 3 4 5 8 9 9 7 7 7 8 6 5 7 6 10 13 13 15 15 14 12 10 11 8 6 5 3 3 4 4 5 6 7 9 11 12
5 4 3 3 3 2 2 5 8 9 7 4 4 8 12 11 6 6 7 6 3 2 3 4 4 5 6 7 5 8 12 11 8 5 5 5 5 6 4 2 1 4 4 2 3 1 4 4 2 7 6 5 5 2 2 5 10 10 7 7 8 9 8 7 6 6 8 8 9 13 16 16 14 12 10 9 9 7 6 5 5 3 4 5 5 7 8 10
4 3 2 2 2 3 6 8 9 6 4 4 9 12 10 7 6 7 6 3 3 3 4 2 3 4 6 10 12 10 10 6 3 3 4 4 5 4 2 3 4 5 5 4 4 4 6 5 4 9 9 8 9 6 2 2 8 10 8 7 6 8 10 9 9 8 7 5 7 11 14 15 13 12 11 10 10 9 8 8 8 8 7 7 7 8 9 9
3 3 2 2 3 6 9 8 6 3 5 10 12 10 6 7 6 5 4 4 4 5 6 5 6 8 10 14 13 7 5 3 2 4 5 4 4 3 3 5 5 5 5 4 5 5 7 6 6 10 8 9 12 10 7 5 7 10 9 8 6 8 8 9 10 8 9 11 12 14 16 18 16 14 13 13 13 12 12 11 11 10 9 7 6 6 6 8
3 3 2 4 5 8 9 5 3 5 10 12 8 7 7 7 4 3 4 4 3 4 8 10 9 13 12 10 7 4 3 3 4 6 6 5 3 3 5 5 4 5 4 4 5 5 6 5 6 8 6 9 11 10 10 8 9 10 10 10 9 8 5 6 9 8 8 10 10 10 12 17 17 18 19 18 18 18 17 16 15 14 12 10 6 4 2 2
4 4 4 5 8 8 6 2 5 9 11 8 6 7 6 3 2 4 4 3 3 5 12 13 10 13 11 5 4 2 2 5 7 8 7 4 3 4 5 5 4 4 4 4 4 4 6 5 6 7 6 9 10 8 10 10 10 10 11 12 9 10 12 10 11 13 11 8 7 4 4 9 10 12 16 16 17 18 18 18 18 18 18 17 15 13 10 6
4 5 5 7 8 5 3 5 9 10 7 5 6 6 2 2 3 3 3 4 6 9 13 14 10 8 8 4 1 1 4 8 9 8 5 3 4 5 3 4 4 4 5 5 4 5 7 6 6 8 7 8 8 8 11 11 10 9 12 15 7 9 19 16 13 16 16 13 10 7 6 4 4 7 9 9 11 13 16 21 23 24 24 25 25 23 22 19
5 6 6 7 5 2 5 9 10 7 6 6 5 2 2 3 3 2 5 8 11 12 11 10 7 3 5 3 0 5 10 10 8 5 4 4 4 4 3 4 3 4 6 5 4 5 6 6 8 7 6 7 8 10 12 10 8 8 10 14 9 8 17 19 16 15 15 15 12 11 10 6 4 6 8 10 13 15 17 20 22 25 27 26 26 26 25 24
6 6 6 5 3 5 9 9 8 7 6 5 2 2 4 4 3 4 8 11 11 11 8 4 2 2 2 1 6 12 11 8 5 4 5 4 3 2 3 3 3 5 5 4 5 6 7 6 5 5 6 8 7 9 10 5 8 11 9 11 10 8 13 19 20 15 14 16 13 11 10 10 10 7 8 11 14 16 18 19 19 19 19 21 22 22 22 21
6 6 6 3 5 9 9 8 7 7 4 3 2 3 4 5 5 6 10 10 9 10 7 1 1 4 3 6 12 11 5 5 5 4 4 3 2 3 2 3 4 4 5 6 7 6 6 3 3 8 7 3 3 7 9 6 9 13 10 10 12 12 13 13 17 17 15 15 13 13 12 11 14 12 9 9 10 15 17 15 15 14 14 17 20 22 22 20
5 6 4 5 9 9 7 7 6 4 2 2 2 4 8 9 8 9 10 8 9 8 2 1 5 6 7 9 9 4 3 5 4 2 2 2 3 3 2 4 4 4 8 8 4 3 4 2 5 7 0 -2 4 9 12 11 11 9 6 7 9 14 17 12 12 14 15 17 15 14 14 12 14 14 11 12 13 14 13 11 10 12 14 14 16 19 20 21
5 4 5 8 9 6 6 6 4 2 2 1 4 8 9 9 10 10 8 9 11 6 -1 2 6 5 6 6 3 3 4 3 2 2 1 2 4 3 2 4 5 5 6 4 0 2 4 4 4 1 -1 3 6 10 12 10 9 8 6 6 5 11 19 16 13 13 12 16 17 14 15 15 15 15 14 15 15 12 10 11 12 12 13 14 14 14 14 15
4 6 9 10 7 7 7 4 2 2 2 4 6 6 3 7 13 11 7 9 8 1 -1 3 3 4 4 3 2 2 1 0 2 3 2 2 4 4 3 4 6 4 2 2 2 5 5 3 2 2 6 7 5 8 11 9 9 10 8 6 8 11 17 19 14 13 14 14 16 16 15 17 17 17 18 17 15 15 13 12 12 12 12 12 11 9 9 9
8 10 9 7 6 7 5 2 2 2 5 8 8 9 10 12 13 9 8 8 4 -1 -1 2 2 2 2 2 2 0 -0 1 2 3 4 2 3 5 3 3 5 2 3 6 5 5 4 2 2 6 8 4 4 7 8 10 10 11 8 4 10 14 16 24 19 11 14 14 14 16 15 18 20 19 19 19 17 16 14 13 11 11 9 8 7 7 9 9
11 10 6 6 7 5 2 2 3 5 7 7 8 13 13 8 5 7 9 5 0 -0 1 2 3 1 0 2 3 1 -0 1 3 3 3 3 3 5 4 4 5 3 5 6 4 4 3 3 5 7 6 3 5 6 7 12 9 10 10 3 11 16 8 19 27 20 17 15 14 16 16 19 21 21 21 20 19 15 12 11 10 9 8 7 8 9 11 13
9 6 6 8 6 3 2 3 4 6 6 6 8 10 6 3 4 7 8 4 -1 1 2 2 3 3 2 0 2 5 2 0 3 3 3 4 4 5 5 5 6 5 5 4 3 4 4 5 6 5 5 4 4 5 6 9 6 9 12 3 11 21 9 4 14 21 23 20 16 15 17 21 21 23 25 19 15 14 13 13 12 10 10 10 13 14 14 16
6 7 8 6 3 2 3 3 5 5 5 6 8 8 5 4 4 3 5 5 2 3 3 3 3 3 3 1 1 6 4 1 2 3 4 4 5 6 6 5 6 5 4 5 4 4 5 5 5 4 5 4 3 5 6 5 6 10 13 7 7 20 20 8 6 14 23 26 20 13 13 22 27 24 22 18 14 19 21 20 18 19 21 19 17 14 10 7
6 8 6 4 3 3 3 4 6 5 6 6 4 6 7 5 3 3 3 3 2 4 4 4 3 2 3 3 2 4 4 2 2 3 4 5 7 7 6 5 7 6 4 5 4 3 5 5 4 5 5 4 4 6 6 4 7 10 12 11 9 17 21 13 9 12 21 26 20 14 10 16 29 24 15 16 18 23 22 18 24 27 23 16 10 7 4 1
8 7 3 3 3 3 5 7 7 7 8 8 4 2 4 3 2 3 3 1 1 2 2 3 3 2 3 4 3 2 3 3 1 4 5 5 6 6 6 6 6 6 4 5 6 4 5 5 4 5 4 3 3 4 6 6 9 11 10 9 10 19 21 12 13 15 22 27 18 16 14 12 24 24 15 18 22 23 18 15 20 17 9 7 6 5 3 1
6 3 3 4 5 6 8 8 7 8 8 10 9 4 2 1 1 3 4 3 2 2 2 1 1 2 3 3 3 1 2 5 3 4 5 3 5 7 7 7 6 5 4 5 7 5 6 6 4 5 3 3 3 4 7 8 9 8 7 9 9 17 21 11 12 18 22 24 21 22 19 11 22 25 18 23 24 17 11 11 15 11 8 9 6 5 4 2
3 3 5 5 7 7 7 8 8 8 6 6 8 6 3 2 2 3 3 2 1 2 2 0 1 3 3 2 3 2 1 6 4 2 5 4 5 7 7 8 5 3 3 6 7 5 5 5 3 4 3 3 5 7 8 9 9 6 4 9 8 15 22 9 9 24 27 22 20 25 21 10 16 26 27 23 14 6 9 19 24 19 16 12 8 9 8 6
4 5 6 5 5 5 6 8 9 9 7 6 6 4 3 2 2 3 3 1 0 1 1 2 3 3 2 2 3 3 1 4 5 2 5 5 4 6 8 8 5 3 4 5 6 5 5 5 3 4 3 3 6 8 8 5 5 6 4 7 10 16 22 9 4 20 28 24 20 21 23 9 7 28 34 14 2 13 27 28 19 12 12 9 6 7 6 7
5 5 5 4 4 5 8 9 9 8 8 8 6 4 3 2 4 4 2 1 0 1 1 1 3 2 3 3 2 4 1 2 5 3 4 5 5 7 7 5 4 3 3 4 5 4 5 5 4 4 3 3 7 7 6 4 4 6 1 0 8 16 22 13 5 18 25 23 19 18 22 8 3 27 30 7 9 29 30 18 9 8 11 8 6 9 11 13
6 6 4 4 6 7 8 8 8 7 7 8 6 4 3 1 4 4 1 1 1 2 2 1 2 2 3 3 2 4 3 2 5 4 3 3 3 6 6 4 4 3 2 4 6 6 6 6 3 5 3 1 4 4 3 3 4 7 2 -4 0 12 23 14 0 14 28 26 17 15 22 13 8 23 18 4 21 34 20 9 9 11 14 15 13 17 20 22
6 4 4 5 6 6 6 6 5 5 6 7 5 5 5 2 4 4 3 5 2 2 4 2 1 1 2 3 2 4 4 3 5 3 3 5 4 6 7 6 5 4 5 6 7 4 4 4 3 5 5 3 3 3 4 5 6 7 3 -1 -4 -3 12 14 -4 -4 17 32 26 17 19 13 10 21 15 9 24 28 11 4 12 16 16 16 15 19 26 29
3 3 4 6 6 6 7 6 6 6 6 7 5 4 4 2 4 4 3 6 3 1 4 4 2 -1 1 4 3 5 4 1 3 3 3 6 6 6 8 8 7 5 6 7 6 4 3 5 5 6 7 5 5 8 10 9 9 9 4 4 3 -6 -0 12 4 -12 -5 21 28 24 23 10 6 17 17 17 21 16 7 7 14 17 10 10 19 28 31 27
2 4 4 6 7 6 6 5 5 6 5 6 5 4 4 3 3 4 3 4 5 4 3 4 5 -0 -0 4 3 3 4 1 2 3 2 4 5 5 7 8 7 5 4 5 7 6 7 8 8 7 7 4 5 8 9 8 7 8 6 7 10 9 9 17 21 3 -8 8 19 26 28 9 5 17 14 19 21 8 9 16 14 11 12 23 35 34 24 20
3 4 5 6 7 6 6 6 5 5 4 4 5 4 4 3 3 4 3 3 5 6 4 1 5 3 -0 3 3 2 3 1 1 3 2 3 4 5 8 9 7 6 4 5 6 5 6 8 7 6 5 4 4 5 7 9 7 5 7 8 6 9 7 11 27 22 8 13 15 21 28 8 4 19 16 18 22 12 14 17 13 17 29 40 37 22 13 14
4 6 6 6 7 7 7 6 5 5 4 4 5 3 3 4 3 2 3 5 4 6 7 1 1 5 2 0 2 2 2 2 2 3 2 2 4 5 8 9 8 6 4 4 6 5 5 6 4 4 4 4 4 5 7 7 6 5 8 8 6 11 7 -3 5 13 11 18 19 21 26 10 1 13 17 16 17 16 17 16 20 31 38 36 22 9 8 9
5 6 7 6 7 6 5 6 5 4 5 5 5 4 3 4 4 2 2 5 5 3 6 3 -0 4 3 0 1 1 3 2 2 3 2 2 4 4 7 9 8 6 4 4 4 4 3 3 3 4 5 5 3 4 6 5 6 9 10 6 0 7 15 5 -5 -5 -3 5 21 35 31 8 1 11 14 15 14 15 21 21 28 37 32 22 12 8 10 8
7 7 7 6 6 6 6 5 3 2 2 4 5 4 4 4 4 4 2 2 5 3 3 4 2 2 3 2 1 1 4 3 2 3 2 2 4 4 7 9 8 7 5 3 3 2 2 2 4 6 6 5 3 1 3 6 10 11 8 9 5 0 8 12 5 -0 -5 -12 -0 33 37 8 5 18 13 12 15 14 22 28 31 32 24 13 10 9 9 8
7 7 7 7 8 7 7 6 5 5 3 3 5 4 4 4 2 4 4 2 3 3 2 3 3 2 3 4 2 2 4 4 4 4 2 3 4 4 6 8 8 7 5 4 2 1 3 4 6 8 6 4 2 2 4 6 9 9 6 11 15 12 13 21 20 12 8 -4 -16 6 32 18 7 17 15 13 17 17 22 29 28 25 17 9 8 11 12 13
6 7 8 8 9 8 7 7 6 5 5 5 6 5 4 4 1 0 3 4 3 3 2 2 3 2 1 4 3 2 4 5 4 4 3 3 3 4 6 8 8 6 5 4 3 2 4 4 5 6 6 6 7 4 3 4 6 8 9 9 8 8 9 16 24 20 14 12 -5 -9 17 24 11 15 17 13 19 24 25 28 27 21 13 8 10 14 15 16
6 7 7 7 8 8 8 9 6 3 4 3 4 6 6 6 4 0 -1 2 3 3 1 1 3 3 1 3 4 2 4 5 5 5 4 3 3 4 6 8 8 7 5 4 3 4 4 4 5 6 6 7 5 2 2 6 9 10 9 8 5 5 2 -3 7 18 17 17 11 5 18 24 12 12 17 15 22 30 28 26 26 19 11 11 14 13 12 11
6 7 8 8 9 8 8 9 7 5 4 1 2 5 6 5 6 4 1 1 2 3 2 0 2 4 2 3 4 3 3 5 5 5 4 3 3 4 5 7 8 7 5 4 4 4 4 4 6 8 8 5 3 5 7 5 9 13 10 7 7 8 9 1 -3 5 13 11 7 11 24 26 17 14 16 18 27 34 31 26 23 17 12 12 13 11 9 9
7 7 8 8 7 7 8 9 8 7 6 4 3 5 6 6 5 4 3 3 2 2 2 1 2 4 3 3 5 4 3 5 6 5 4 4 3 4 6 7 8 7 6 5 4 4 4 3 4 5 5 4 3 5 8 6 5 11 12 8 7 8 10 12 8 6 12 12 -0 -0 16 22 18 16 15 19 30 36 35 29 20 14 12 11 11 12 11 10
7 7 8 9 7 5 7 8 8 8 6 5 5 5 5 6 6 5 3 3 4 2 2 3 3 4 4 4 5 4 4 5 6 5 4 4 3 4 6 7 8 8 6 5 4 4 4 2 3 4 4 6 8 5 7 10 7 8 11 8 6 8 8 9 12 8 11 18 6 -7 6 21 18 15 15 19 31 37 36 32 23 12 10 11 12 11 12 14
6 7 7 9 9 7 7 8 8 7 5 5 4 4 5 6 7 8 5 3 4 3 3 4 4 4 5 5 5 5 4 4 5 5 5 5 3 4 6 7 7 7 6 5 4 3 4 2 2 6 7 7 10 8 5 8 8 6 11 10 3 5 8 7 9 7 5 20 20 -3 -5 14 18 13 14 20 30 34 32 32 27 16 10 11 13 13 14 15
5 6 6 8 10 10 9 8 8 8 6 5 5 4 4 5 6 7 5 4 3 3 4 5 5 5 5 5 5 5 4 4 5 5 5 5 4 4 6 7 7 7 6 5 5 3 3 3 1 3 5 3 5 6 3 5 7 5 7 13 7 3 7 8 10 8 -1 9 27 15 -2 5 12 10 10 17 27 31 28 26 24 19 14 12 13 17 17 16
4 4 4 5 6 8 11 12 12 9 6 5 5 4 3 4 6 6 4 3 3 3 4 5 5 5 5 5 6 5 5 5 5 5 5 5 4 4 6 7 8 8 6 4 4 3 2 3 2 1 1 2 3 5 4 2 5 5 6 13 11 3 6 10 10 11 1 -7 7 17 8 4 10 12 11 13 22 28 27 25 20 16 14 12 15 19 17 17
5 4 3 3 4 5 7 11 14 13 9 6 5 5 4 3 4 4 3 3 2 2 4 5 5 5 5 5 6 6 5 5 5 5 6 5 4 4 6 8 8 8 7 6 4 3 3 3 2 1 1 2 2 3 4 3 4 6 5 10 12 5 6 11 8 10 10 -0 -2 9 14 9 7 11 12 15 23 27 27 27 22 17 14 13 18 20 16 14
7 6 4 4 6 6 6 9 12 13 12 9 6 5 4 4 3 2 2 3 2 2 3 4 4 4 5 5 6 6 6 6 6 5 6 6 4 4 6 7 9 8 7 6 4 3 4 3 2 2 1 2 3 1 2 4 4 4 4 9 14 9 6 10 11 10 12 10 4 5 14 16 14 13 10 12 24 30 29 30 27 21 18 16 18 19 15 12
8 7 5 1 1 3 5 7 10 13 15 11 7 6 4 4 4 3 2 3 2 2 2 3 3 4 5 5 6 7 6 6 6 5 6 6 4 4 6 5 7 9 7 6 6 3 3 3 3 3 2 2 3 2 3 4 2 2 5 8 11 12 9 7 9 8 8 10 8 2 5 11 16 19 12 7 16 26 28 32 31 24 20 19 18 18 16 13
8 9 8 4 -0 -3 -2 2 5 12 17 14 9 7 5 4 5 3 3 4 3 2 2 2 3 3 4 5 6 7 7 6 7 5 5 6 4 4 6 5 6 8 8 7 6 4 4 4 3 3 3 4 3 3 4 3 0 3 7 7 9 15 14 7 7 9 6 6 8 3 -1 -2 4 15 15 8 11 20 24 31 34 26 21 22 18 15 15 15
6 9 10 9 6 1 -1 -0 2 7 15 17 13 8 5 4 4 3 3 4 4 4 3 3 3 3 4 4 5 7 7 6 6 6 5 5 5 5 5 5 5 6 7 7 7 5 4 4 4 3 3 4 5 5 3 1 2 6 7 6 9 15 14 7 9 13 11 7 7 6 4 0 0 9 13 6 7 15 19 25 33 28 21 24 21 13 13 14
Height
5796 5798 5800 5803 5806 5807 5808 5810 5812 5814 5816 5818 5819 5820 5821 5821 5822 5822 5822 5822 5823 5823 5823 5823 5822 5822 5822 5822 5822 5822 5822 5822 5821 5821 5821 5820 5818 5817 5816 5814 5813 5811 5809 5807 5805 5803 5801 5799 5797 5795 5793 5791 5789 5786 5784 5781 5778 5776 5773 5770 5767 5764 5761 5758 5755 5753 5750 5747 5744 5741 5738 5735 5733 5730 5727 5724 5721 5719 5716 5713 5711 5710 5708 5706 5705 5703 5701 5700
5797 5799 5802 5805 5806 5807 5808 5810 5813 5815 5817 5818 5819 5820 5821 5821 5821 5822 5822 5822 5823 5823 5823 5823 5823 5823 5823 5823 5823 5823 5823 5822 5822 5822 5821 5819 5818 5817 5815 5814 5812 5810 5808 5807 5805 5803 5801 5799 5797 5795 5792 5790 5787 5784 5782 5779 5776 5773 5770 5767 5764 5761 5758 5754 5751 5748 5745 5742 5739 5736 5733 5730 5727 5724 5721 5719 5716 5713 5710 5707 5705 5703 5701 5700 5698 5696 5694 5693
5798 5801 5803 5805 5807 5808 5810 5811 5814 5816 5817 5819 5819 5820 5820 5821 5821 5822 5822 5823 5823 5823 5823 5823 5824 5824 5824 5824 5824 5824 5823 5823 5822 5821 5820 5819 5818 5817 5815 5814 5812 5810 5808 5807 5805 5802 5800 5798 5796 5794 5791 5788 5785 5782 5779 5777 5774 5770 5767 5764 5761 5758 5754 5751 5747 5744 5741 5738 5734 5731 5728 5725 5722 5718 5716 5713 5710 5707 5704 5701 5699 5697 5694 5692 5690 5688 5687 5686
5801 5803 5804 5806 5808 5809 5811 5813 5815 5817 5818 5819 5819 5820 5821 5821 5821 5822 5822 5823 5823 5823 5824 5824 5824 5825 5825 5825 5824 5824 5824 5823 5822 5821 5820 5819 5818 5816 5815 5813 5812 5810 5808 5806 5804 5802 5800 5797 5794 5792 5789 5786 5783 5780 5777 5774 5771 5768 5765 5761 5758 5755 5751 5747 5744 5740 5737 5733 5730 5726 5723 5720 5716 5713 5710 5707 5704 5701 5697 5695 5692 5690 5687 5685 5682 5681 5680 5679
5802 5803 5805 5807 5809 5810 5812 5814 5816 5817 5818 5819 5820 5820 5821 5821 5822 5822 5823 5823 5824 5824 5825 5825 5825 5825 5825 5825 5825 5824 5824 5823 5823 5822 5820 5819 5818 5816 5814 5813 5811 5809 5807 5805 5803 5801 5798 5796 5793 5790 5787 5784 5781 5778 5775 5772 5769 5765 5762 5759 5755 5752 5748 5745 5741 5737 5733 5729 5726 5722 5718 5714 5711 5707 5704 5701 5698 5695 5691 5688 5685 5683 5680 5678 5675 5674 5673 5672
5802 5804 5806 5808 5810 5812 5814 5815 5817 5818 5818 5819 5820 5821 5821 5822 5822 5823 5823 5824 5825 5825 5826 5826 5826 5826 5826 5826 5825 5825 5824 5824 5823 5821 5820 5819 5817 5816 5814 5812 5810 5809 5807 5805 5802 5799 5797 5794 5792 5789 5786 5783 5779 5776 5773 5769 5766 5762 5759 5755 5752 5748 5745 5741 5737 5734 5730 5726 5722 5718 5714 5710 5706 5702 5698 5695 5692 5688 5685 5681 5678 5676 5673 5671 5669 5668 5666 5664
5803 5805 5808 5810 5811 5813 5815 5816 5817 5818 5819 5820 5821 5821 5822 5822 5823 5823 5824 5825 5825 5826 5826 5826 5827 5827 5826 5826 5826 5825 5824 5824 5823 5821 5820 5818 5817 5815 5813 5811 5810 5808 5805 5803 5800 5798 5795 5793 5790 5787 5784 5781 5777 5774 5770 5767 5763 5760 5756 5752 5748 5744 5741 5737 5733 5729 5726 5722 5718 5714 5709 5705 5701 5697 5693 5689 5685 5681 5677 5673 5671 5668 5666 5664 5662 5660 5658 5656
5804 5806 5808 5810 5812 5814 5815 5816 5817 5818 5819 5820 5821 5822 5822 5823 5824 5824 5825 5826 5826 5827 5827 5827 5827 5827 5827 5827 5826 5825 5824 5824 5823 5821 5819 5818 5816 5814 5813 5811 5809 5806 5804 5801 5799 5797 5794 5791 5788 5785 5782 5779 5775 5772 5769 5765 5761 5758 5754 5750 5746 5741 5737 5732 5728 5724 5720 5716 5712 5708 5703 5699 5695 5691 5688 5684 5679 5674 5670 5666 5662 5659 5658 5656 5653 5652 5650 5648
5805 5807 5809 5811 5813 5814 5816 5816 5817 5819 5820 5821 5822 5823 5823 5824 5824 5825 5826 5827 5827 5827 5828 5828 5828 5828 5827 5826 5826 5825 5825 5824 5822 5820 5819 5817 5816 5814 5812 5810 5808 5805 5803 5800 5798 5795 5792 5789 5787 5784 5780 5777 5774 5770 5767 5763 5760 5756 5751 5747 5743 5738 5733 5728 5723 5719 5714 5710 5706 5701 5696 5692 5688 5684 5681 5677 5673 5668 5664 5660 5656 5653 5650 5647 5645 5642 5640 5639
5805 5807 5809 5811 5813 5815 5816 5817 5818 5819 5820 5822 5823 5823 5824 5824 5825 5826 5827 5827 5828 5828 5828 5828 5828 5828 5827 5827 5827 5826 5825 5823 5821 5820 5818 5817 5815 5813 5811 5809 5806 5804 5801 5799 5796 5794 5791 5788 5786 5782 5779 5775 5772 5769 5765 5761 5757 5753 5749 5745 5740 5735 5729 5724 5719 5714 5709 5704 5700 5695 5690 5685 5681 5677 5672 5669 5666 5662 5657 5653 5649 5646 5643 5640 5637 5634 5632 5630
5806 5807 5809 5812 5814 5815 5816 5817 5819 5820 5821 5823 5824 5824 5825 5825 5826 5827 5828 5828 5829 5829 5829 5829 5828 5828 5828 5828 5827 5825 5824 5822 5821 5819 5818 5817 5815 5812 5810 5808 5805 5803 5801 5798 5796 5793 5790 5787 5784 5780 5777 5774 5770 5766 5763 5759 5755 5750 5746 5741 5736 5731 5725 5720 5714 5708 5703 5697 5692 5688 5684 5678 5674 5670 5665 5662 5658 5654 5649 5645 5642 5638 5635 5632 5629 5626 5623 5621
5806 5808 5810 5812 5814 5816 5817 5818 5819 5821 5822 5824 5824 5825 5825 5826 5827 5828 5829 5829 5829 5829 5829 5829 5829 5829 5828 5827 5825 5825 5824 5822 5820 5819 5818 5816 5814 5811 5809 5807 5805 5802 5800 5798 5795 5792 5789 5786 5783 5779 5776 5772 5768 5764 5760 5756 5752 5747 5743 5738 5733 5727 5720 5714 5708 5702 5696 5691 5685 5681 5677 5673 5668 5664 5660 5655 5650 5645 5641 5638 5634 5630 5626 5622 5619 5616 5613 5610
5807 5808 5810 5813 5814 5816 5817 5819 5820 5822 5823 5824 5825 5825 5826 5827 5828 5829 5829 5830 5830 5830 5830 5830 5829 5829 5828 5826 5826 5825 5823 5822 5821 5819 5817 5814 5812 5810 5809 5807 5804 5802 5800 5797 5794 5791 5788 5785 5781 5778 5774 5769 5765 5761 5757 5753 5748 5744 5740 5735 5730 5725 5718 5712 5705 5699 5693 5686 5681 5674 5670 5666 5660 5656 5651 5646 5641 5636 5633 5629 5625 5621 5617 5613 5610 5607 5605 5601
5807 5809 5811 5813 5815 5817 5818 5820 5821 5823 5824 5825 5825 5826 5827 5828 5829 5829 5830 5830 5831 5831 5830 5830 5830 5829 5827 5826 5826 5824 5823 5822 5820 5818 5816 5814 5813 5810 5808 5806 5804 5802 5799 5796 5793 5790 5786 5783 5780 5776 5771 5767 5762 5758 5753 5749 5745 5741 5737 5733 5728 5725 5719 5712 5704 5698 5691 5684 5677 5670 5664 5659 5652 5647 5642 5636 5630 5625 5623 5619 5615 5611 5607 5604 5601 5598 5596 5593
5808 5810 5812 5814 5816 5818 5819 5821 5822 5824 5825 5825 5826 5827 5828 5829 5829 5830 5831 5831 5831 5831 5831 5830 5830 5829 5827 5826 5825 5824 5822 5820 5818 5817 5816 5814 5812 5810 5808 5806 5804 5801 5798 5795 5792 5789 5786 5782 5777 5773 5768 5764 5759 5755 5751 5747 5744 5740 5736 5733 5727 5721 5716 5709 5701 5694 5687 5679 5672 5665 5660 5654 5647 5640 5633 5627 5621 5615 5611 5608 5604 5601 5598 5595 5592 5589 5586 5584
5809 5811 5813 5815 5817 5818 5820 5822 5823 5824 5825 5826 5827 5828 5829 5830 5830 5831 5831 5832 5831 5831 5831 5831 5830 5828 5827 5826 5824 5822 5821 5819 5819 5818 5816 5814 5811 5809 5807 5805 5802 5799 5796 5794 5791 5787 5783 5778 5774 5770 5767 5763 5759 5755 5752 5748 5745 5740 5734 5729 5723 5717 5710 5705 5697 5688 5681 5674 5667 5658 5652 5648 5642 5635 5627 5619 5612 5607 5602 5598 5594 5591 5588 5585 5582 5580 5577 5574
5810 5811 5813 5815 5817 5819 5821 5823 5824 5825 5826 5827 5828 5828 5830 5830 5831 5832 5832 5832 5832 5831 5831 5831 5829 5828 5826 5825 5823 5822 5821 5821 5820 5818 5815 5813 5811 5809 5806 5804 5801 5798 5795 5791 5787 5783 5778 5775 5772 5769 5765 5762 5759 5755 5751 5746 5742 5736 5730 5723 5717 5710 5702 5696 5690 5683 5674 5667 5661 5653 5645 5639 5634 5628 5620 5612 5605 5599 5594 5590 5586 5582 5578 5575 5573 5571 5568 5565
5810 5812 5814 5816 5818 5820 5822 5823 5825 5826 5827 5827 5828 5829 5830 5831 5832 5832 5832 5832 5832 5832 5832 5830 5828 5827 5826 5825 5824 5824 5823 5821 5820 5817 5815 5812 5810 5808 5805 5803 5800 5797 5793 5788 5785 5781 5778 5775 5772 5768 5765 5763 5759 5753 5746 5739 5733 5727 5722 5716 5709 5702 5693 5685 5679 5674 5667 5660 5653 5646 5639 5632 5626 5619 5612 5605 5599 5593 5587 5582 5578 5574 5570 5567 5564 5561 5558 5555
5811 5812 5815 5817 5819 5821 5823 5824 5825 5827 5827 5828 5829 5830 5831 5831 5832 5832 5833 5833 5832 5832 5831 5830 5828 5828 5827 5826 5825 5824 5822 5821 5819 5816 5814 5812 5810 5807 5804 5802 5798 5794 5791 5788 5786 5783 5779 5775 5771 5768 5765 5760 5754 5747 5740 5733 5728 5723 5717 5710 5702 5695 5688 5680 5672 5665 5658 5653 5646 5637 5630 5625 5619 5612 5605 5598 5592 5586 5580 5574 5570 5565 5562 5558 5555 5552 5548 5546
5811 5813 5816 5818 5820 5821 5823 5824 5826 5827 5828 5829 5830 5831 5831 5832 5833 5833 5833 5832 5831 5832 5832 5830 5829 5829 5828 5827 5825 5823 5822 5820 5817 5815 5813 5811 5809 5806 5803 5800 5797 5794 5792 5789 5785 5782 5777 5772 5769 5765 5759 5753 5747 5742 5736 5730 5725 5720 5714 5707 5699 5691 5684 5676 5669 5661 5652 5646 5639 5630 5623 5618 5611 5604 5597 5591 5585 5578 5572 5566 5562 5557 5553 5550 5546 5543 5539 5537
5812 5814 5817 5819 5820 5822 5824 5826 5827 5828 5828 5829 5830 5831 5832 5833 5834 5833 5832 5830 5831 5833 5832 5831 5830 5829 5828 5826 5824 5823 5822 5819 5817 5814 5812 5810 5807 5805 5802 5800 5797 5795 5791 5787 5782 5778 5774 5770 5766 5760 5754 5749 5744 5739 5734 5728 5721 5715 5710 5704 5698 5690 5681 5672 5663 5655 5647 5639 5631 5623 5616 5611 5604 5597 5590 5583 5577 5570 5564 5559 5554 5550 5546 5541 5538 5534 5531 5527
5813 5815 5817 5819 5821 5823 5825 5827 5828 5828 5829 5830 5831 5832 5833 5833 5833 5832 5831 5831 5833 5833 5832 5831 5830 5828 5827 5826 5824 5823 5821 5818 5816 5813 5811 5809 5807 5805 5802 5799 5797 5793 5789 5785 5781 5777 5773 5768 5762 5757 5751 5746 5741 5736 5730 5724 5717 5712 5707 5701 5694 5686 5678 5670 5661 5651 5641 5631 5623 5615 5608 5603 5598 5590 5583 5576 5569 5563 5557 5552 5547 5542 5538 5533 5529 5526 5522 5519
5814 5816 5818 5820 5822 5824 5826 5827 5828 5829 5830 5831 5832 5833 5833 5833 5832 5832 5831 5832 5833 5833 5832 5831 5829 5828 5827 5825 5824 5822 5820 5818 5816 5814 5813 5810 5807 5804 5801 5798 5794 5791 5787 5784 5780 5775 5770 5764 5758 5753 5748 5742 5737 5732 5727 5722 5716 5711 5705 5698 5689 5680 5669 5660 5653 5646 5637 5625 5615 5608 5603 5597 5591 5584 5576 5569 5562 5557 5551 5545 5540 5535 5530 5526 5522 5518 5514 5511
5815 5817 5819 5821 5823 5825 5827 5828 5828 5830 5830 5831 5832 5833 5833 5833 5833 5832 5832 5833 5833 5833 5832 5830 5829 5828 5827 5826 5825 5823 5821 5819 5817 5815 5812 5809 5807 5804 5800 5796 5792 5789 5785 5781 5777 5771 5766 5760 5755 5750 5745 5739 5734 5730 5725 5721 5715 5707 5700 5691 5682 5674 5664 5652 5642 5637 5633 5625 5612 5601 5596 5591 5584 5577 5569 5562 5555 5550 5545 5539 5534 5529 5524 5520 5515 5511 5508 5504
5817 5819 5820 5822 5824 5826 5827 5828 5829 5830 5831 5832 5833 5833 5833 5833 5833 5833 5833 5833 5833 5832 5831 5831 5830 5828 5827 5826 5825 5823 5821 5819 5817 5814 5811 5808 5805 5802 5798 5794 5790 5786 5782 5778 5773 5768 5764 5759 5753 5747 5742 5736 5731 5726 5721 5716 5710 5703 5695 5687 5676 5667 5660 5650 5639 5631 5625 5618 5606 5593 5584 5579 5576 5568 5559 5553 5547 5541 5537 5532 5527 5522 5518 5514 5509 5505 5501 5497
5818 5820 5821 5823 5825 5826 5828 5829 5830 5830 5831 5832 5833 5833 5834 5834 5834 5833 5833 5833 5833 5832 5832 5831 5830 5829 5828 5826 5825 5823 5821 5818 5816 5813 5810 5806 5803 5799 5796 5792 5788 5784 5780 5775 5771 5766 5762 5757 5751 5745 5739 5733 5728 5722 5718 5712 5705 5697 5689 5681 5672 5663 5656 5647 5636 5627 5620 5611 5600 5589 5579 5572 5569 5562 5552 5545 5539 5534 5529 5525 5521 5517 5513 5508 5503 5498 5494 5490
5819 5821 5822 5824 5826 5827 5828 5829 5830 5831 5832 5832 5833 5834 5834 5834 5834 5834 5834 5834 5833 5832 5832 5831 5830 5828 5827 5826 5824 5822 5819 5817 5814 5811 5808 5805 5801 5798 5794 5790 5786 5782 5777 5773 5769 5764 5759 5754 5748 5743 5738 5732 5726 5720 5714 5707 5698 5691 5684 5677 5669 5661 5653 5645 5634 5626 5620 5613 5603 5592 5580 5569 5563 5556 5547 5540 5533 5528 5524 5519 5515 5511 5506 5501 5496 5491 5486 5481
5821 5822 5824 5825 5827 5828 5829 5830 5831 5832 5832 5833 5833 5834 5834 5834 5834 5834 5834 5834 5833 5833 5832 5831 5830 5828 5827 5825 5823 5821 5818 5816 5813 5811 5807 5803 5800 5797 5792 5789 5785 5780 5774 5770 5767 5762 5757 5752 5747 5742 5736 5730 5723 5715 5708 5701 5693 5687 5681 5675 5668 5659 5652 5646 5637 5627 5619 5610 5598 5586 5573 5561 5556 5550 5542 5535 5529 5523 5518 5513 5509 5504 5499 5494 5489 5484 5479 5474
5822 5823 5825 5827 5828 5829 5830 5831 5831 5832 5833 5833 5834 5834 5834 5834 5834 5834 5834 5834 5833 5833 5832 5831 5830 5828 5827 5825 5823 5820 5818 5815 5812 5809 5806 5802 5799 5795 5791 5788 5783 5778 5773 5767 5763 5759 5755 5750 5745 5739 5733 5726 5718 5710 5703 5697 5691 5683 5677 5673 5667 5659 5652 5646 5636 5623 5613 5600 5585 5573 5563 5552 5547 5544 5536 5528 5523 5518 5511 5506 5502 5497 5492 5487 5482 5477 5472 5466
5823 5825 5826 5828 5829 5830 5830 5831 5832 5833 5833 5834 5834 5835 5835 5835 5834 5835 5834 5834 5834 5833 5832 5831 5829 5828 5826 5824 5822 5819 5817 5814 5811 5808 5805 5801 5797 5793 5790 5787 5782 5777 5771 5765 5760 5757 5752 5747 5742 5736 5729 5722 5714 5705 5697 5691 5686 5679 5672 5668 5666 5659 5650 5641 5630 5613 5598 5587 5575 5565 5558 5549 5541 5535 5529 5524 5518 5511 5505 5500 5496 5490 5485 5480 5475 5470 5463 5456
5825 5826 5828 5829 5830 5830 5831 5832 5833 5833 5834 5834 5835 5835 5835 5835 5835 5835 5835 5834 5834 5833 5832 5830 5829 5827 5825 5823 5821 5819 5816 5814 5811 5808 5805 5802 5798 5795 5792 5788 5784 5780 5774 5767 5760 5755 5750 5744 5739 5733 5727 5720 5713 5706 5698 5690 5684 5678 5669 5660 5655 5650 5638 5627 5618 5603 5585 5575 5569 5562 5556 5547 5536 5528 5524 5519 5513 5506 5500 5495 5489 5484 5479 5474 5467 5460 5453 5445
5826 5828 5829 5830 5830 5831 5832 5833 5833 5834 5835 5835 5835 5835 5835 5835 5836 5836 5835 5835 5834 5833 5831 5830 5829 5827 5826 5824 5821 5819 5816 5814 5811 5808 5805 5801 5798 5795 5791 5786 5782 5778 5773 5767 5760 5753 5748 5742 5736 5731 5724 5718 5712 5707 5700 5693 5683 5673 5662 5649 5636 5628 5619 5608 5599 5591 5581 5575 5569 5559 5549 5541 5533 5527 5521 5513 5505 5500 5496 5489 5482 5475 5468 5462 5456 5449 5442 5434
5828 5829 5830 5830 5831 5832 5833 5834 5834 5835 5835 5835 5836 5836 5836 5836 5836 5836 5835 5835 5834 5833 5832 5830 5829 5827 5826 5823 5821 5818 5816 5813 5810 5806 5803 5799 5795 5792 5787 5782 5777 5773 5768 5763 5758 5752 5747 5742 5736 5729 5721 5713 5705 5697 5689 5681 5671 5660 5649 5637 5623 5612 5603 5592 5582 5577 5574 5573 5567 5556 5545 5537 5531 5525 5517 5508 5500 5494 5489 5481 5473 5465 5458 5451 5445 5439 5433 5427
5829 5830 5830 5831 5832 5833 5834 5834 5835 5835 5836 5836 5836 5837 5837 5837 5836 5836 5836 5835 5834 5833 5832 5830 5829 5827 5825 5823 5820 5818 5815 5812 5809 5805 5801 5798 5795 5790 5785 5780 5776 5771 5766 5761 5755 5748 5741 5736 5731 5724 5716 5707 5698 5690 5680 5671 5664 5657 5647 5638 5629 5617 5602 5588 5578 5572 5569 5567 5563 5554 5543 5533 5525 5518 5510 5503 5496 5488 5481 5474 5466 5459 5452 5445 5438 5433 5427 5421
5830 5831 5831 5832 5833 5834 5834 5835 5836 5836 5836 5837 5837 5837 5837 5837 5837 5836 5836 5835 5834 5833 5832 5830 5829 5827 5825 5822 5820 5817 5814 5811 5807 5804 5800 5797 5793 5789 5784 5779 5774 5769 5764 5759 5753 5746 5738 5731 5724 5718 5711 5704 5695 5687 5680 5672 5663 5655 5648 5640 5631 5619 5608 5601 5594 5584 5573 5564 5559 5553 5543 5532 5522 5515 5507 5499 5491 5483 5475 5468 5462 5455 5448 5441 5434 5429 5424 5417
5831 5832 5832 5833 5834 5835 5835 5836 5836 5837 5837 5837 5838 5838 5837 5837 5837 5837 5836 5835 5834 5833 5832 5830 5828 5826 5824 5821 5819 5816 5813 5810 5806 5803 5799 5795 5791 5786 5782 5777 5772 5767 5762 5756 5751 5745 5738 5729 5722 5716 5709 5701 5693 5684 5677 5669 5660 5653 5646 5637 5624 5614 5608 5606 5602 5594 5579 5564 5554 5547 5538 5527 5518 5511 5503 5494 5484 5477 5470 5464 5457 5450 5442 5435 5430 5425 5420 5414
5832 5833 5833 5834 5835 5835 5836 5836 5837 5838 5838 5838 5838 5838 5838 5837 5837 5837 5836 5835 5834 5833 5831 5830 5827 5825 5823 5821 5818 5815 5812 5809 5805 5801 5797 5793 5789 5785 5780 5776 5770 5765 5759 5754 5749 5743 5737 5730 5722 5715 5708 5700 5692 5683 5674 5667 5660 5651 5641 5630 5622 5617 5611 5602 5591 5582 5572 5561 5551 5543 5532 5521 5512 5503 5495 5487 5479 5472 5466 5459 5451 5444 5436 5430 5425 5420 5415 5410
5833 5833 5834 5835 5835 5836 5836 5837 5837 5838 5838 5838 5838 5838 5838 5838 5838 5837 5836 5835 5834 5833 5831 5829 5827 5825 5823 5820 5818 5815 5811 5808 5804 5800 5796 5792 5787 5783 5779 5774 5769 5764 5758 5752 5747 5742 5737 5730 5722 5714 5706 5698 5690 5681 5674 5667 5657 5646 5635 5628 5622 5614 5604 5592 5580 5570 5562 5554 5546 5542 5535 5522 5509 5499 5490 5482 5475 5468 5462 5454 5446 5439 5431 5425 5420 5415 5411 5406
5834 5834 5835 5835 5836 5836 5837 5837 5838 5838 5839 5839 5839 5839 5838 5838 5838 5837 5836 5835 5834 5832 5830 5829 5827 5825 5822 5820 5817 5814 5811 5807 5803 5799 5794 5790 5786 5782 5777 5773 5768 5763 5757 5751 5746 5740 5735 5729 5721 5713 5705 5698 5691 5683 5674 5664 5653 5646 5641 5636 5629 5617 5604 5592 5582 5571 5562 5551 5540 5534 5530 5520 5506 5497 5488 5480 5473 5465 5456 5449 5442 5435 5428 5421 5416 5410 5406 5401
5835 5835 5836 5836 5836 5837 5837 5838 5838 5838 5839 5839 5839 5839 5838 5838 5838 5837 5836 5835 5833 5832 5830 5828 5826 5824 5822 5819 5816 5813 5810 5806 5802 5798 5793 5789 5785 5781 5776 5771 5767 5762 5757 5751 5745 5739 5734 5728 5721 5713 5705 5697 5689 5680 5671 5663 5657 5652 5645 5637 5629 5622 5613 5602 5590 5575 5561 5549 5536 5526 5523 5518 5505 5495 5488 5481 5474 5464 5454 5445 5439 5432 5426 5420 5413 5407 5401 5396
5836 5836 5837 5837 5837 5837 5838 5838 5838 5838 5839 5839 5839 5839 5838 5838 5837 5837 5836 5834 5833 5831 5830 5828 5826 5823 5821 5818 5815 5812 5808 5805 5801 5797 5792 5788 5784 5779 5775 5770 5766 5761 5756 5751 5744 5738 5732 5726 5720 5713 5705 5697 5688 5680 5673 5667 5661 5652 5642 5632 5623 5614 5607 5599 5589 5577 5564 5552 5540 5528 5521 5515 5504 5496 5491 5482 5473 5464 5453 5444 5437 5431 5425 5419 5412 5405 5399 5393
5837 5837 5837 5837 5838 5838 5838 5838 5838 5838 5839 5839 5839 5838 5838 5837 5837 5836 5835 5834 5833 5831 5829 5827 5825 5823 5820 5817 5814 5811 5807 5804 5800 5796 5791 5787 5783 5778 5774 5769 5764 5760 5755 5750 5744 5738 5732 5726 5720 5714 5706 5699 5692 5685 5678 5669 5660 5651 5641 5631 5620 5609 5599 5589 5580 5573 5565 5556 5548 5538 5527 5519 5509 5500 5491 5481 5472 5463 5453 5443 5436 5431 5425 5418 5411 5405 5398 5391
5838 5838 5838 5838 5838 5838 5838 5838 5838 5838 5839 5839 5839 5838 5837 5837 5837 5836 5835 5834 5832 5830 5829 5827 5824 5822 5819 5816 5813 5810 5806 5803 5799 5795 5790 5786 5782 5777 5773 5768 5763 5758 5753 5748 5743 5737 5731 5725 5720 5715 5710 5704 5696 5688 5679 5669 5658 5649 5639 5627 5616 5606 5596 5587 5579 5572 5564 5554 5545 5535 5528 5522 5513 5501 5490 5481 5472 5463 5453 5443 5435 5428 5422 5416 5409 5403 5397 5390
5838 5839 5839 5839 5838 5838 5838 5838 5838 5839 5839 5839 5838 5838 5837 5837 5836 5835 5834 5833 5832 5830 5828 5826 5824 5821 5818 5815 5812 5809 5805 5801 5797 5793 5789 5785 5781 5776 5771 5767 5762 5757 5752 5747 5742 5735 5728 5722 5715 5710 5705 5699 5692 5683 5675 5665 5653 5642 5633 5624 5615 5606 5598 5591 5584 5576 5567 5559 5546 5534 5526 5520 5510 5499 5489 5480 5471 5462 5454 5444 5434 5426 5420 5414 5407 5401 5395 5388
5839 5839 5839 5839 5839 5838 5838 5838 5839 5839 5839 5838 5838 5837 5837 5836 5836 5835 5834 5832 5831 5829 5827 5825 5823 5820 5817 5814 5811 5807 5804 5800 5796 5792 5788 5784 5780 5775 5770 5765 5760 5756 5751 5745 5740 5734 5727 5719 5710 5702 5693 5684 5677 5670 5662 5656 5648 5640 5631 5623 5616 5609 5601 5593 5585 5577 5568 5561 5551 5537 5525 5517 5509 5499 5488 5478 5469 5460 5451 5443 5434 5426 5418 5411 5405 5399 5392 5386
5839 5840 5840 5839 5839 5839 5838 5838 5838 5838 5838 5838 5837 5837 5836 5836 5835 5834 5833 5832 5830 5828 5826 5824 5822 5819 5816 5813 5810 5806 5802 5799 5795 5791 5787 5783 5778 5774 5769 5764 5759 5754 5750 5744 5739 5733 5727 5719 5710 5701 5693 5683 5675 5669 5662 5655 5648 5641 5634 5625 5617 5609 5601 5593 5585 5577 5569 5562 5556 5542 5525 5512 5504 5494 5482 5473 5464 5454 5444 5437 5431 5424 5417 5410 5403 5396 5390 5384
5840 5840 5840 5840 5839 5839 5838 5838 5838 5838 5837 5837 5837 5836 5836 5835 5834 5833 5832 5831 5829 5827 5825 5823 5821 5818 5815 5812 5809 5805 5801 5798 5794 5790 5786 5781 5777 5773 5768 5763 5758 5753 5748 5743 5737 5732 5726 5719 5711 5702 5695 5687 5680 5673 5666 5658 5651 5644 5636 5626 5616 5608 5602 5596 5587 5578 5570 5560 5551 5540 5527 5513 5502 5491 5479 5467 5457 5448 5440 5432 5425 5420 5414 5408 5402 5396 5391 5384
5840 5840 5840 5840 5839 5839 5838 5838 5838 5837 5837 5836 5836 5835 5835 5834 5833 5832 5831 5830 5828 5826 5824 5822 5819 5817 5814 5811 5807 5804 5800 5797 5793 5789 5785 5780 5776 5771 5767 5762 5757 5752 5747 5742 5736 5731 5725 5719 5713 5705 5697 5689 5681 5674 5667 5660 5652 5645 5636 5628 5621 5613 5606 5598 5588 5579 5570 5557 5545 5538 5528 5515 5503 5494 5481 5466 5454 5445 5437 5429 5423 5419 5413 5408 5402 5397 5391 5384
5840 5840 5840 5839 5839 5839 5838 5838 5837 5836 5836 5835 5835 5835 5834 5833 5833 5831 5830 5829 5827 5825 5823 5821 5818 5816 5813 5809 5806 5803 5800 5796 5792 5788 5784 5779 5775 5770 5766 5761 5756 5751 5746 5740 5735 5729 5724 5718 5712 5706 5698 5690 5683 5675 5667 5660 5653 5645 5637 5631 5624 5615 5605 5596 5587 5579 5570 5560 5551 5542 5533 5522 5510 5497 5483 5470 5460 5451 5442 5435 5429 5422 5415 5410 5404 5398 5391 5384
5839 5839 5839 5839 5839 5839 5838 5837 5836 5836 5835 5835 5834 5834 5833 5833 5832 5830 5829 5828 5826 5824 5822 5820 5817 5814 5811 5808 5805 5802 5799 5795 5791 5787 5783 5778 5774 5769 5765 5760 5755 5750 5745 5739 5734 5728 5722 5717 5711 5705 5699 5692 5685 5677 5668 5660 5653 5646 5638 5631 5625 5617 5607 5597 5588 5578 5568 5559 5552 5544 5537 5529 5516 5501 5487 5476 5466 5457 5448 5440 5432 5423 5416 5411 5404 5397 5390 5384
5839 5839 5839 5839 5838 5838 5837 5837 5836 5835 5834 5834 5833 5833 5832 5831 5830 5829 5828 5826 5825 5823 5821 5818 5816 5813 5810 5807 5804 5801 5797 5794 5790 5785 5781 5777 5772 5768 5764 5759 5754 5749 5744 5738 5732 5727 5721 5715 5710 5704 5698 5692 5685 5677 5670 5661 5652 5645 5638 5632 5625 5616 5605 5594 5584 5574 5563 5556 5548 5540 5531 5520 5509 5500 5491 5480 5468 5458 5449 5440 5431 5423 5416 5410 5403 5396 5390 5384
5838 5838 5838 5838 5838 5837 5837 5836 5835 5834 5833 5833 5832 5831 5831 5830 5829 5828 5827 5825 5823 5821 5819 5817 5815 5812 5809 5806 5803 5800 5796 5792 5788 5784 5780 5775 5771 5767 5763 5758 5753 5748 5743 5737 5731 5726 5720 5715 5709 5704 5698 5691 5684 5677 5669 5662 5654 5646 5638 5630 5621 5612 5604 5596 5587 5576 5566 5556 5545 5532 5520 5511 5505 5498 5488 5477 5467 5457 5446 5436 5428 5422 5415 5409 5402 5395 5390 5384